Dunkirk, NY

3:23 AM EDT on April 24, 2018 (GMT -0400)
Chautauqua County-Dunkirk

Weather History for KDKK - August, 2013

Change the Weather History Date:

Wednesday, August 7, 2013

  Actual Average Record
Temperature  
Mean Temperature 74 °F -  
Max Temperature 84 °F 79 °F 91 °F (1947)
Min Temperature 66 °F 61 °F 48 °F (2012)
Cooling Degree Days 9    
Growing Degree Days 24 (Base 50)    
Moisture  
Dew Point 63 °F    
Average Humidity 67    
Maximum Humidity 79    
Minimum Humidity 54    
Precipitation  
Precipitation 0.00 in - - ()
Sea Level Pressure  
Sea Level Pressure 29.92 in    
Wind  
Wind Speed 17 mph (SSW)    
Max Wind Speed 23 mph    
Max Gust Speed 26 mph    
Visibility 10 miles    
Events      
Averages and records for this station are not official NWS values.
T = Trace of Precipitation, MM = Missing Value Source: NWS Daily Summary

Daily Weather History Graph

Daily Weather History Graph

Search for Another Location

Airport or City:

Astronomy

Aug. 07, 2013 Rise Set
Actual Time 6:15 AM EDT 8:29 PM EDT
Civil Twilight 5:44 AM EDT 9:00 PM EDT
Nautical Twilight 5:06 AM EDT 9:38 PM EDT
Astronomical Twilight 4:23 AM EDT 10:20 PM EDT
Moon 7:05 AM EDT (8/7) 8:32 PM EDT (8/7)
Length of Visible Light 15h 15m
Length of Day
14h 13m
New Moon, 1% of the Moon is Illuminated
Aug 7
New Moon
Aug 14
First Quarter
Aug 20
Full
Aug 28
Last Quarter
Sep 5
New

Hourly Weather History & Observations

Time (EDT) Temp. Heat Index Dew Point Humidity Pressure Visibility Wind Dir Wind Speed Gust Speed Precip Events Conditions
12:53 AM 69.1 °F - 59.0 °F 70% 29.97 in 10.0 mi South 13.8 mph - N/A   Clear
1:53 AM 69.1 °F - 59.0 °F 70% 29.96 in 10.0 mi South 17.3 mph - N/A   Clear
2:53 AM 69.1 °F - 59.0 °F 70% 29.96 in 10.0 mi South 13.8 mph 24.2 mph N/A   Clear
3:53 AM 68.0 °F - 59.0 °F 73% 29.96 in 10.0 mi South 18.4 mph 25.3 mph N/A   Clear
4:53 AM 66.9 °F - 59.0 °F 76% 29.96 in 10.0 mi South 20.7 mph 26.5 mph N/A   Clear
5:53 AM 66.9 °F - 60.1 °F 79% 29.96 in 10.0 mi South 17.3 mph 24.2 mph N/A   Clear
6:53 AM 66.9 °F - 60.1 °F 79% 29.95 in 10.0 mi South 17.3 mph 23.0 mph N/A   Clear
7:53 AM 69.1 °F - 61.0 °F 75% 29.96 in 10.0 mi South 17.3 mph 25.3 mph N/A   Clear
8:53 AM 72.0 °F - 62.1 °F 71% 29.96 in 10.0 mi South 20.7 mph - N/A   Mostly Cloudy
9:53 AM 75.9 °F - 63.0 °F 64% 29.94 in 10.0 mi South 19.6 mph 25.3 mph N/A   Clear
10:53 AM 78.1 °F - 64.0 °F 62% 29.95 in 10.0 mi South 18.4 mph - N/A   Clear
11:53 AM 81.0 °F 82.2 °F 63.0 °F 54% 29.93 in 10.0 mi South 23.0 mph - N/A   Clear
12:53 PM 81.0 °F 82.5 °F 64.0 °F 56% 29.91 in 10.0 mi SSW 19.6 mph - N/A   Clear
1:53 PM 79.0 °F - 64.9 °F 62% 29.91 in 10.0 mi SSW 16.1 mph - N/A   Scattered Clouds
2:53 PM 82.0 °F 83.8 °F 64.9 °F 56% 29.89 in 10.0 mi SSW 17.3 mph 24.2 mph N/A   Scattered Clouds
3:53 PM 82.0 °F 83.8 °F 64.9 °F 56% 29.89 in 10.0 mi SSW 17.3 mph 25.3 mph N/A   Scattered Clouds
4:53 PM 82.0 °F 84.1 °F 66.0 °F 58% 29.87 in 10.0 mi SSW 18.4 mph 23.0 mph N/A   Clear
5:53 PM 81.0 °F 82.7 °F 64.9 °F 58% 29.87 in 10.0 mi SSW 17.3 mph 26.5 mph N/A   Clear
6:53 PM 80.1 °F 81.9 °F 64.9 °F 60% 29.86 in 10.0 mi SW 11.5 mph 20.7 mph N/A   Clear
7:53 PM 77.0 °F - 64.9 °F 66% 29.88 in 10.0 mi SSW 15.0 mph 18.4 mph N/A   Clear
8:53 PM 73.9 °F - 64.9 °F 73% 29.90 in 10.0 mi SW 5.8 mph - N/A   Clear
9:53 PM 73.0 °F - 63.0 °F 71% 29.91 in 10.0 mi SSW 19.6 mph - N/A   Clear
10:53 PM 72.0 °F - 63.0 °F 73% 29.92 in 10.0 mi SSW 18.4 mph 25.3 mph N/A   Partly Cloudy
11:53 PM 72.0 °F - 63.0 °F 73% 29.92 in 10.0 mi South 21.9 mph - N/A   Scattered Clouds